Location: Unspecified
(0.0000°N, 0.0000°E)
Time: 18:30:17
(UTC+00:00)

STARLINK 1058 - Pass Details

Date: 18 January 2020
Orbit: 548 x 551 km, 53.0° (Epoch: 17 January)

Event Time Altitude Azimuth Distance (km) Brightness Sun altitude
Rises 19:20:17 0° 287° (WNW) 2,703 8.0 -16.3°
Reaches altitude 10° 19:24:20 10° 248° (WSW) 1,814 7.6 -17.3°
Maximum altitude 19:25:15 11° 235° (SW) 1,775 7.4 -17.5°
Drops below altitude 10° 19:26:10 10° 222° (SW) 1,816 7.2 -17.7°
Sets 19:30:15 0° 182° (S) 2,714 7.5 -18.7°
